DW4847 Weather Reports


Display with metric or nautical units.
time (UTC)temp
F
wind
direction
speed
MPH
gust
MPH
rain 1hr
in
rain 24hr
in
rain mn
in
humidity
%
barometer
mb
20260502232022 46 286 0.0 5.0 0.00 0.27 0.27 52 1009.9
20260502231556 46 317 0.0 5.0 0.00 0.27 0.27 54 1009.8
20260502231049 47 247 0.0 5.0 0.00 0.27 0.27 52 1009.8
20260502230534 47 296 1.0 5.0 0.00 0.27 0.27 50 1009.8
20260502230047 47 323 2.0 8.0 0.00 0.27 0.27 49 1009.8
20260502225533 48 250 0.0 8.0 0.00 0.27 0.27 49 1009.8
20260502225027 48 306 2.0 5.0 0.00 0.27 0.27 49 1009.7
20260502224533 48 319 1.0 3.0 0.00 0.27 0.27 49 1009.6
20260502224026 48 236 1.0 4.0 0.00 0.27 0.27 51 1009.6
20260502223601 48 316 2.0 4.0 0.00 0.27 0.27 50 1009.6
20260502223027 49 311 1.0 3.0 0.00 0.27 0.27 50 1009.5
20260502222537 49 263 1.0 5.0 0.00 0.27 0.27 50 1009.5
20260502222032 49 279 2.0 6.0 0.00 0.27 0.27 47 1009.6
20260502221538 50 319 2.0 7.0 0.00 0.27 0.27 48 1009.4
20260502221032 50 305 2.0 4.0 0.00 0.27 0.27 49 1009.3
20260502220546 50 239 1.0 7.0 0.00 0.27 0.27 48 1009.3
20260502220032 51 331 2.0 7.0 0.00 0.27 0.27 46 1009.3
20260502215547 51 265 2.0 5.0 0.00 0.27 0.27 48 1009.3
20260502215033 51 344 2.0 12.0 0.00 0.27 0.27 47 1009.2
20260502214528 51 305 5.0 12.0 0.00 0.27 0.27 44 1009.3
20260502214031 51 225 3.0 8.0 0.00 0.27 0.27 48 1009.2
20260502213523 51 11 4.0 8.0 0.00 0.27 0.27 46 1009.1
20260502213038 52 267 2.0 8.0 0.00 0.27 0.27 49 1009.0
20260502212524 51 232 3.0 7.0 0.00 0.27 0.27 46 1008.9
20260502212039 51 246 4.0 6.0 0.00 0.27 0.27 47 1009.0
20260502211526 51 258 2.0 6.0 0.00 0.27 0.27 48 1008.9
20260502211041 51 210 1.0 5.0 0.00 0.27 0.27 51 1008.9
20260502210537 50 252 1.0 7.0 0.00 0.27 0.27 50 1008.9
20260502210039 51 278 4.0 7.0 0.00 0.27 0.27 49 1008.9
20260502205533 51 241 3.0 7.0 0.00 0.27 0.27 49 1008.9
20260502205038 51 319 2.0 6.0 0.00 0.27 0.27 49 1008.8
20260502204553 51 327 1.0 4.0 0.00 0.27 0.27 54 1008.8
20260502204027 50 231 2.0 4.0 0.00 0.27 0.27 55 1008.9
20260502203532 50 229 1.0 4.0 0.00 0.27 0.27 54 1008.8
20260502203025 50 210 1.0 6.0 0.00 0.27 0.27 55 1008.8
20260502202538 50 256 2.0 6.0 0.00 0.27 0.27 55 1008.9
20260502202021 51 355 2.0 4.0 0.00 0.27 0.27 56 1009.0
20260502201532 51 229 1.0 5.0 0.00 0.27 0.27 58 1009.0
20260502201046 51 34 1.0 5.0 0.00 0.27 0.27 57 1009.1
20260502200531 51 300 2.0 5.0 0.00 0.27 0.27 55 1009.2
20260502200046 52 214 1.0 6.0 0.00 0.27 0.27 56 1009.3
20260502195530 52 239 0.0 4.0 0.00 0.27 0.27 54 1009.2
20260502195040 52 222 2.0 7.0 0.00 0.27 0.27 55 1009.3
20260502194526 53 246 3.0 7.0 0.00 0.27 0.27 54 1009.4
20260502194038 53 294 3.0 6.0 0.00 0.27 0.27 55 1009.3
20260502193532 53 277 2.0 8.0 0.00 0.27 0.27 57 1009.4
20260502193038 52 227 3.0 8.0 0.00 0.27 0.27 56 1009.4
20260502192532 51 309 2.0 7.0 0.00 0.27 0.27 60 1009.4
20260502192045 51 301 0.0 7.0 0.00 0.27 0.27 61 1009.4
20260502191558 51 311 1.0 5.0 0.00 0.27 0.27 61 1009.4
20260502191022 51 333 3.0 9.0 0.00 0.27 0.27 60 1009.5
20260502190536 51 281 2.0 7.0 0.00 0.27 0.27 59 1009.6
20260502190022 51 339 2.0 5.0 0.00 0.27 0.27 58 1009.5
20260502185533 51 258 2.0 6.0 0.00 0.27 0.27 58 1009.5
20260502185028 50 285 2.0 6.0 0.00 0.27 0.27 60 1009.6
20260502184535 50 337 1.0 6.0 0.00 0.27 0.27 62 1009.6
20260502184028 51 213 3.0 6.0 0.00 0.27 0.27 61 1009.6
20260502183542 51 336 1.0 5.0 0.00 0.27 0.27 65 1009.6
20260502183043 51 321 2.0 6.0 0.00 0.27 0.27 67 1009.6
20260502182531 50 355 4.0 6.0 0.00 0.27 0.27 68 1009.6
20260502182026 49 217 3.0 6.0 0.00 0.27 0.27 67 1009.6
20260502181529 49 219 0.0 5.0 0.00 0.27 0.27 72 1009.7
20260502181041 49 218 3.0 6.0 0.00 0.27 0.27 70 1009.7
20260502180525 48 286 1.0 5.0 0.00 0.27 0.27 75 1009.9
20260502180106 48 325 2.0 6.0 0.00 0.27 0.27 72 1009.9
20260502164102 43 232 2.0 4.0 0.00 0.27 0.27 86 1010.6
20260502163526 43 235 0.0 1.0 0.01 0.27 0.27 87 1010.6
20260502163042 43 279 0.0 3.0 0.01 0.27 0.27 87 1010.7
20260502162528 43 271 0.0 3.0 0.01 0.27 0.27 87 1010.7
20260502162044 43 255 1.0 7.0 0.01 0.27 0.27 87 1010.7
20260502161537 43 276 3.0 7.0 0.01 0.27 0.27 86 1010.7
20260502161024 43 285 1.0 3.0 0.01 0.27 0.27 87 1010.7
20260502160559 43 302 1.0 7.0 0.01 0.27 0.27 86 1010.8
20260502152041 42 240 2.0 6.0 0.01 0.26 0.26 88 1010.9
20260502151543 42 225 1.0 5.0 0.01 0.26 0.26 88 1011.0
20260502151037 42 338 1.0 5.0 0.01 0.26 0.26 89 1010.9
20260502150531 42 311 0.0 3.0 0.01 0.26 0.26 90 1010.8
20260502130534 44 315 1.0 3.0 0.00 0.25 0.25 89 1010.5
20260502123537 44 166 0.0 3.0 0.00 0.25 0.25 90 1010.6
20260502123032 44 163 1.0 3.0 0.00 0.25 0.25 90 1010.5
20260502122546 44 161 1.0 2.0 0.00 0.25 0.25 91 1010.6
20260502122031 44 159 0.0 2.0 0.00 0.25 0.25 92 1010.4
20260502121524 44 157 0.0 3.0 0.00 0.25 0.25 92 1010.4
20260502121039 44 158 0.0 3.0 0.00 0.25 0.25 92 1010.3
20260502120545 44 146 1.0 2.0 0.01 0.25 0.25 93 1010.5
20260502115528 44 102 0.0 1.0 0.01 0.25 0.25 93 1010.7
20260502115103 43 89 0.0 3.0 0.01 0.25 0.25 93 1010.5
20260502114040 43 201 0.0 0.0 0.01 0.25 0.25 93 1010.6
20260502113527 43 202 0.0 0.0 0.01 0.25 0.25 93 1010.5
20260502113023 43 202 0.0 0.0 0.01 0.25 0.25 93 1010.5
20260502112537 43 202 0.0 0.0 0.01 0.25 0.25 93 1010.5
20260502112041 43 202 0.0 0.0 0.01 0.25 0.25 93 1010.5
20260502111536 43 201 0.0 0.0 0.01 0.25 0.25 93 1010.5
20260502111049 43 200 0.0 0.0 0.01 0.25 0.25 93 1010.5
20260502110535 42 200 0.0 0.0 0.00 0.24 0.24 92 1010.6
20260502110022 42 200 0.0 0.0 0.01 0.24 0.24 92 1010.5
20260502105536 42 200 0.0 0.0 0.02 0.24 0.24 92 1010.5
20260502105031 42 202 0.0 0.0 0.03 0.24 0.24 92 1010.5
20260502104536 42 202 0.0 0.0 0.03 0.24 0.24 92 1010.1
20260502104050 42 202 0.0 0.0 0.04 0.24 0.24 92 1010.2
20260502103524 42 202 0.0 0.0 0.04 0.24 0.24 92 1010.1
20260502103059 42 202 0.0 0.0 0.05 0.24 0.24 92 1010.0
20260502102524 42 202 0.0 0.0 0.05 0.24 0.24 92 1009.9
20260502102039 42 202 0.0 0.0 0.05 0.24 0.24 92 1010.1
20260502101550 42 198 0.0 0.0 0.06 0.24 0.24 92 1010.0
20260502101036 42 198 0.0 0.0 0.06 0.24 0.24 92 1010.0
20260502100531 42 198 0.0 0.0 0.07 0.24 0.24 92 1010.0
20260502091043 42 198 0.0 0.0 0.05 0.18 0.18 92 1010.0
20260502090537 42 198 0.0 0.0 0.05 0.17 0.17 92 1010.0
20260502090106 42 198 0.0 0.0 0.05 0.17 0.17 91 1009.8
20260502071038 43 198 0.0 0.0 0.03 0.07 0.07 91 1010.3
20260502070525 43 198 0.0 0.0 0.03 0.07 0.07 91 1010.3
20260502070039 43 198 0.0 0.0 0.04 0.07 0.07 91 1010.4
20260502065533 43 198 0.0 0.0 0.05 0.07 0.07 91 1010.2
20260502065037 43 198 0.0 0.0 0.05 0.07 0.07 91 1010.2
20260502064531 43 198 0.0 0.0 0.05 0.07 0.07 91 1010.3
20260502064033 43 198 0.0 0.0 0.04 0.06 0.06 91 1010.4
20260502063528 43 198 0.0 1.0 0.03 0.05 0.05 90 1010.5
20260502063043 43 198 0.0 1.0 0.03 0.05 0.05 90 1010.5
20260502062529 43 198 0.0 0.0 0.03 0.05 0.05 90 1010.4
20260502062043 43 198 0.0 0.0 0.03 0.05 0.05 90 1010.4
20260502061533 43 198 0.0 0.0 0.03 0.05 0.05 90 1010.5
20260502061038 43 198 0.0 0.0 0.02 0.04 0.04 90 1010.5
20260502060528 43 198 0.0 0.0 0.01 0.03 0.03 90 1010.7
20260502060043 43 198 0.0 0.0 0.01 0.03 0.03 90 1010.7
20260502055528 43 198 0.0 0.0 0.00 0.02 0.02 90 1010.6
20260502055043 43 198 0.0 0.0 0.00 0.02 0.02 90 1010.5
20260502054536 43 198 0.0 1.0 0.00 0.02 0.02 90 1010.5
20260502054023 43 198 0.0 2.0 0.00 0.02 0.02 90 1010.5
20260502053537 43 197 0.0 1.0 0.00 0.02 0.02 90 1010.5
20260502053023 43 197 1.0 1.0 0.00 0.02 0.02 89 1010.5
20260502052558 43 196 0.0 1.0 0.01 0.02 0.02 89 1010.5
20260502052031 43 196 0.0 2.0 0.01 0.02 0.02 89 1010.6
20260502051546 43 196 0.0 2.0 0.02 0.02 0.02 89 1010.4
20260502051029 43 196 0.0 0.0 0.02 0.02 0.02 89 1010.3
20260502050542 43 196 0.0 1.0 0.02 0.02 0.02 89 1010.4
20260502050027 43 196 0.0 1.0 0.02 0.02 0.02 88 1010.6
20260502045522 43 196 0.0 1.0 0.02 0.02 0.02 88 1011.0
20260502045054 43 196 0.0 1.0 0.02 0.02 0.02 88 1010.9
20260502044545 43 196 0.0 0.0 0.02 0.02 0.02 87 1010.9
20260502044031 44 196 0.0 1.0 0.02 0.02 0.02 87 1010.9
20260502043525 44 196 0.0 1.0 0.02 0.02 0.02 86 1011.2
20260502043039 44 196 0.0 3.0 0.02 0.02 0.02 85 1011.1
20260502042524 44 196 1.0 3.0 0.01 0.01 0.01 84 1011.0
20260502042038 44 307 1.0 3.0 0.01 0.01 0.01 82 1010.9
20260502041523 44 307 0.0 0.0 0.00 0.00 0.00 80 1010.8
20260502041038 44 307 0.0 0.0 0.00 0.00 0.00 79 1010.7
20260502040523 44 306 0.0 0.0 0.00 0.00 0.00 79 1010.6
20260502040033 44 306 0.0 0.0 0.00 0.00 0.00 78 1010.5
20260502035527 44 306 0.0 0.0 0.00 0.00 0.00 78 1010.5
20260502035034 44 307 0.0 0.0 0.00 0.00 0.00 77 1010.5
20260502034529 44 307 0.0 0.0 0.00 0.00 0.00 77 1010.4
20260502034044 44 307 0.0 0.0 0.00 0.00 0.00 77 1010.5
20260502033529 44 307 0.0 0.0 0.00 0.00 0.00 77 1010.5
20260502033045 44 307 0.0 0.0 0.00 0.00 0.00 77 1010.6
20260502032539 44 307 0.0 0.0 0.00 0.00 0.00 77 1010.5
20260502032050 44 307 0.0 0.0 0.00 0.00 0.00 76 1010.5
20260502031536 44 307 0.0 0.0 0.00 0.00 0.00 75 1010.5
20260502031031 44 307 0.0 0.0 0.00 0.00 0.00 76 1010.5
20260502030546 44 307 0.0 0.0 0.00 0.00 0.00 76 1010.5
20260502030033 44 307 0.0 0.0 0.00 0.00 0.00 75 1010.6
20260502025548 44 307 0.0 0.0 0.00 0.00 0.00 76 1010.5
20260502025042 44 307 0.0 1.0 0.00 0.00 0.00 76 1010.5
20260502024529 44 307 1.0 1.0 0.00 0.00 0.00 74 1010.5
20260502024044 44 309 0.0 0.0 0.00 0.00 0.00 74 1010.5
20260502023536 44 309 0.0 0.0 0.00 0.00 0.00 75 1010.5
20260502023021 44 309 0.0 0.0 0.00 0.00 0.00 74 1010.4
20260502022556 44 309 0.0 0.0 0.00 0.00 0.00 75 1010.5
20260502022030 44 309 0.0 0.0 0.00 0.00 0.00 74 1010.6
20260502021537 44 309 0.0 0.0 0.00 0.00 0.00 74 1010.6
20260502021032 44 309 0.0 0.0 0.00 0.00 0.00 74 1010.6
20260502020547 44 309 0.0 0.0 0.00 0.00 0.00 73 1010.7
20260502020033 45 309 0.0 0.0 0.00 0.00 0.00 73 1010.7
20260502015548 45 309 0.0 0.0 0.00 0.00 0.00 72 1010.7
20260502015034 45 309 0.0 0.0 0.00 0.00 0.00 72 1010.7
20260502014528 45 309 0.0 0.0 0.00 0.00 0.00 71 1010.7
20260502014058 46 309 0.0 0.0 0.00 0.00 0.00 71 1010.6
20260502013524 46 309 0.0 0.0 0.00 0.00 0.00 71 1010.6
20260502013026 46 309 0.0 0.0 0.00 0.00 0.00 71 1010.6
20260502012532 46 309 0.0 0.0 0.00 0.00 0.00 70 1010.6
20260502012047 47 309 0.0 2.0 0.00 0.00 0.00 70 1010.6
20260502011602 47 309 1.0 2.0 0.00 0.00 0.00 70 1010.6
20260502011056 47 320 0.0 1.0 0.00 0.00 0.00 68 1010.5
20260502010530 48 322 0.0 1.0 0.00 0.00 0.00 68 1010.5
20260502010034 48 322 0.0 1.0 0.00 0.00 0.00 68 1010.4
20260502005528 49 322 0.0 1.0 0.00 0.00 0.00 67 1010.4
20260502005043 49 327 0.0 1.0 0.00 0.00 0.00 65 1010.4
20260502004527 49 327 0.0 0.0 0.00 0.00 0.00 64 1010.4
20260502004042 49 327 0.0 0.0 0.00 0.00 0.00 65 1010.4
20260502003558 49 327 0.0 0.0 0.00 0.00 0.00 65 1010.3
20260502003040 50 327 0.0 0.0 0.00 0.00 0.00 65 1010.2
20260502002535 50 329 0.0 0.0 0.00 0.00 0.00 64 1010.1
20260502002051 50 329 0.0 0.0 0.00 0.00 0.00 65 1010.0
20260502001535 50 329 0.0 0.0 0.00 0.00 0.00 62 1009.8
20260502001049 50 329 0.0 0.0 0.00 0.00 0.00 60 1009.8
20260502000534 51 329 0.0 1.0 0.00 0.00 0.00 61 1009.7
20260502000029 51 330 0.0 0.0 0.00 0.00 0.00 61 1009.6
20260501235601 51 330 0.0 0.0 0.00 0.00 0.00 59 1009.6
20260501235025 52 330 0.0 1.0 0.00 0.00 0.00 58 1009.5
20260501234540 52 330 0.0 1.0 0.00 0.00 0.00 58 1009.5
20260501234025 52 330 0.0 0.0 0.00 0.00 0.00 56 1009.4
20260501233539 53 330 0.0 1.0 0.00 0.00 0.00 55 1009.3
20260501233025 53 330 0.0 1.0 0.00 0.00 0.00 55 1009.2
20260501232539 53 330 0.0 1.0 0.00 0.00 0.00 53 1009.1